Fort Dodge, IA

10:45 AM CDT on March 27, 2017 (GMT -0500)
Fort Dodge Regional

Weather History for KFOD - April, 2014

Change the Weather History Date:

Thursday, April 3, 2014

  Actual Average Record
Temperature  
Mean Temperature 36 °F -  
Max Temperature 41 °F 52 °F 82 °F (1981)
Min Temperature 32 °F 30 °F 6 °F (1975)
Degree Days  
Heating Degree Days 28    
Moisture  
Dew Point 34 °F    
Average Humidity 89    
Maximum Humidity 93    
Minimum Humidity 76    
Precipitation  
Precipitation 0.12 in - - ()
Sea Level Pressure  
Sea Level Pressure 29.76 in    
Wind  
Wind Speed 13 mph (ENE)    
Max Wind Speed 20 mph    
Max Gust Speed 26 mph    
Visibility 4 miles    
Events      
Averages and records for this station are not official NWS values.
T = Trace of Precipitation, MM = Missing Value Source: NWS Daily Summary

Daily Weather History Graph

Daily Weather History Graph

Search for Another Location

Airport or City:

Trip Planner

Search our weather history database for the weather conditions in past years. The results will help you decide how hot, cold, wet, or windy it might be!

Date:

Astronomy

Apr. 03, 2014 Rise Set
Actual Time 6:55 AM CDT 7:45 PM CDT
Civil Twilight 6:27 AM CDT 8:13 PM CDT
Nautical Twilight 5:53 AM CDT 8:47 PM CDT
Astronomical Twilight 5:18 AM CDT 9:22 PM CDT
Moon 9:21 AM CDT (4/3) No Moon Set
Length of Visible Light 13h 46m
Length of Day
12h 49m
Waxing Crescent, 17% of the Moon is Illuminated
Apr 3
Waxing Crescent
Apr 7
First Quarter
Apr 15
Full
Apr 22
Last Quarter
Apr 29
New

Hourly Weather History & Observations

Time (CDT) Temp. Windchill Dew Point Humidity Pressure Visibility Wind Dir Wind Speed Gust Speed Precip Events Conditions
12:15 AM 41.0 °F 34.3 °F 33.8 °F 76% 29.89 in 10.0 mi East 11.5 mph - N/A   Overcast
12:35 AM 41.0 °F 34.3 °F 33.8 °F 76% 29.89 in 10.0 mi East 11.5 mph - N/A   Overcast
12:55 AM 41.0 °F 34.3 °F 33.8 °F 76% 29.87 in 10.0 mi ENE 11.5 mph - N/A   Overcast
1:15 AM 41.0 °F 31.9 °F 33.8 °F 76% 29.86 in 10.0 mi East 19.6 mph - N/A   Overcast
1:35 AM 41.0 °F 32.8 °F 33.8 °F 76% 29.83 in 10.0 mi East 16.1 mph - N/A   Overcast
1:55 AM 41.0 °F 32.2 °F 33.8 °F 76% 29.83 in 10.0 mi East 18.4 mph 26.5 mph N/A   Overcast
2:35 AM 39.2 °F 31.6 °F 33.8 °F 81% 29.83 in 4.0 mi East 12.7 mph - N/A   Overcast
2:55 AM 39.2 °F 32.5 °F 35.6 °F 87% 29.83 in 3.0 mi East 10.4 mph - N/A   Overcast
3:15 AM 37.4 °F 27.8 °F 33.8 °F 87% 29.82 in 3.0 mi East 17.3 mph - N/A   Overcast
3:35 AM 37.4 °F 27.2 °F 33.8 °F 87% 29.82 in 4.0 mi East 19.6 mph - N/A   Overcast
3:55 AM 37.4 °F 28.2 °F 33.8 °F 87% 29.83 in 3.0 mi East 16.1 mph - N/A   Overcast
4:15 AM 37.4 °F 28.5 °F 33.8 °F 87% 29.82 in 3.0 mi East 15.0 mph - N/A   Overcast
4:35 AM 35.6 °F 26.6 °F 33.8 °F 93% 29.82 in 4.0 mi East 13.8 mph - N/A   Overcast
4:55 AM 35.6 °F 25.9 °F 33.8 °F 93% 29.81 in 3.0 mi East 16.1 mph - N/A   Overcast
5:15 AM 35.6 °F 26.2 °F 32.0 °F 87% 29.81 in 3.0 mi East 15.0 mph - N/A   Overcast
5:35 AM 35.6 °F 27.1 °F 32.0 °F 87% 29.81 in 5.0 mi East 12.7 mph - N/A   Overcast
5:55 AM 35.6 °F 27.1 °F 32.0 °F 87% 29.82 in 3.0 mi ENE 12.7 mph - N/A   Overcast
6:15 AM 35.6 °F 27.1 °F 32.0 °F 87% 29.81 in 3.0 mi ENE 12.7 mph - N/A   Overcast
6:35 AM 35.6 °F 27.1 °F 32.0 °F 87% 29.81 in 3.0 mi ENE 12.7 mph - N/A   Overcast
6:55 AM 33.8 °F 24.3 °F 32.0 °F 93% 29.80 in 3.0 mi ENE 13.8 mph - N/A   Overcast
7:15 AM 33.8 °F 24.3 °F 32.0 °F 93% 29.81 in 3.0 mi ENE 13.8 mph - N/A   Overcast
7:35 AM 33.8 °F 23.9 °F 32.0 °F 93% 29.80 in 2.5 mi ENE 15.0 mph - N/A   Overcast
7:55 AM 33.8 °F 23.5 °F 32.0 °F 93% 29.80 in 2.0 mi East 16.1 mph - N/A   Overcast
8:15 AM 35.6 °F 25.2 °F 30.2 °F 81% 29.76 in 2.5 mi East 18.4 mph - N/A   Overcast
8:35 AM 35.6 °F 26.2 °F 32.0 °F 87% 29.78 in 3.0 mi East 15.0 mph - N/A   Overcast
8:55 AM 35.6 °F 26.2 °F 32.0 °F 87% 29.78 in 4.0 mi East 15.0 mph 20.7 mph N/A   Overcast
9:15 AM 35.6 °F 27.1 °F 32.0 °F 87% 29.79 in 4.0 mi East 12.7 mph - N/A   Overcast
9:35 AM 35.6 °F 28.6 °F 33.8 °F 93% 29.79 in 3.0 mi East 9.2 mph - N/A   Overcast
9:55 AM 35.6 °F 28.6 °F 33.8 °F 93% 29.79 in 3.0 mi ENE 9.2 mph - N/A   Overcast
10:15 AM 35.6 °F 27.5 °F 33.8 °F 93% 29.79 in 2.0 mi ENE 11.5 mph - N/A   Overcast
10:35 AM 37.4 °F 30.8 °F 33.8 °F 87% 29.79 in 1.5 mi ENE 9.2 mph - N/A   Overcast
10:55 AM 37.4 °F 30.3 °F 35.6 °F 93% 29.79 in 1.5 mi East 10.4 mph - N/A   Overcast
11:15 AM 37.4 °F 28.5 °F 35.6 °F 93% 29.79 in 2.0 mi East 15.0 mph - N/A   Overcast
11:35 AM 37.4 °F 28.5 °F 35.6 °F 93% 29.77 in 2.0 mi East 15.0 mph - N/A   Overcast
11:55 AM 37.4 °F 28.5 °F 35.6 °F 93% 29.78 in 3.0 mi East 15.0 mph - N/A   Overcast
12:15 PM 37.4 °F 29.8 °F 35.6 °F 93% 29.78 in 5.0 mi East 11.5 mph - N/A   Overcast
12:35 PM 37.4 °F 28.9 °F 35.6 °F 93% 29.76 in 5.0 mi East 13.8 mph - N/A   Overcast
12:55 PM 39.2 °F 31.6 °F 35.6 °F 87% 29.75 in 5.0 mi East 12.7 mph - N/A   Overcast
1:15 PM 39.2 °F 30.8 °F 35.6 °F 87% 29.74 in 4.0 mi ENE 15.0 mph - N/A   Overcast
1:35 PM 39.2 °F 31.6 °F 37.4 °F 93% 29.75 in 5.0 mi East 12.7 mph - N/A   Overcast
1:55 PM 39.2 °F 31.2 °F 37.4 °F 93% 29.74 in 5.0 mi East 13.8 mph - N/A   Overcast
2:15 PM 39.2 °F 30.5 °F 37.4 °F 93% 29.71 in 5.0 mi ENE 16.1 mph - N/A   Overcast
2:35 PM 39.2 °F 31.6 °F 37.4 °F 93% 29.70 in 5.0 mi ENE 12.7 mph - N/A   Overcast
2:55 PM 39.2 °F 31.2 °F 37.4 °F 93% 29.70 in 5.0 mi ENE 13.8 mph - N/A   Overcast
3:15 PM 39.2 °F 32.5 °F 37.4 °F 93% 29.70 in 5.0 mi ENE 10.4 mph - N/A   Overcast
3:35 PM 39.2 °F 32.0 °F 37.4 °F 93% 29.70 in 3.0 mi East 11.5 mph - 0.01 in   Overcast
3:55 PM 39.2 °F 32.5 °F 37.4 °F 93% 29.69 in 3.0 mi ENE 10.4 mph - 0.01 in   Overcast
4:15 PM 39.2 °F 35.0 °F 37.4 °F 93% 29.71 in 2.5 mi NE 5.8 mph - N/A   Overcast
4:35 PM 39.2 °F 33.6 °F 37.4 °F 93% 29.70 in 2.5 mi NE 8.1 mph - 0.01 in   Overcast
4:55 PM 39.2 °F 32.5 °F 37.4 °F 93% 29.68 in 1.8 mi NE 10.4 mph - 0.02 in   Overcast
5:15 PM 39.2 °F 32.0 °F 35.6 °F 87% 29.68 in 2.0 mi NNE 11.5 mph 17.3 mph 0.01 in   Overcast
5:35 PM 39.2 °F 31.6 °F 35.6 °F 87% 29.67 in 3.0 mi NE 12.7 mph 17.3 mph 0.02 in   Overcast
5:55 PM 37.4 °F 29.8 °F 35.6 °F 93% 29.68 in 5.0 mi NE 11.5 mph - 0.04 in   Overcast
6:15 PM 37.4 °F 29.8 °F 35.6 °F 93% 29.68 in 6.0 mi NNE 11.5 mph 19.6 mph N/A   Overcast
6:35 PM 37.4 °F 29.3 °F 35.6 °F 93% 29.67 in 5.0 mi NNE 12.7 mph - 0.01 in   Overcast
6:55 PM 37.4 °F 31.4 °F 35.6 °F 93% 29.68 in 4.0 mi NNE 8.1 mph - 0.01 in   Overcast
7:15 PM 37.4 °F 30.8 °F 35.6 °F 93% 29.70 in 1.8 mi North 9.2 mph - 0.01 in   Overcast
7:35 PM 35.6 °F 28.6 °F 33.8 °F 93% 29.70 in 2.0 mi North 9.2 mph - 0.03 in   Overcast
7:55 PM 35.6 °F 27.5 °F 33.8 °F 93% 29.70 in 3.0 mi North 11.5 mph - 0.03 in   Overcast
8:15 PM 33.8 °F 24.8 °F 32.0 °F 93% 29.70 in 4.0 mi North 12.7 mph 19.6 mph 0.01 in   Overcast
8:35 PM 33.8 °F 24.8 °F 30.2 °F 87% 29.70 in 5.0 mi North 12.7 mph 17.3 mph 0.01 in   Overcast
8:55 PM 33.8 °F 24.8 °F 30.2 °F 87% 29.70 in 7.0 mi NNE 12.7 mph 20.7 mph 0.01 in   Overcast
9:15 PM 33.8 °F 25.8 °F 30.2 °F 87% 29.70 in 9.0 mi NNE 10.4 mph - N/A   Overcast
9:35 PM 33.8 °F 25.8 °F 30.2 °F 87% 29.68 in 4.0 mi North 10.4 mph 17.3 mph N/A   Overcast
10:55 PM 32.0 °F 23.0 °F 30.2 °F 93% 29.67 in 4.0 mi North 11.5 mph 18.4 mph N/A   Overcast
11:15 PM 32.0 °F 23.6 °F 30.2 °F 93% 29.64 in 7.0 mi NNE 10.4 mph 16.1 mph N/A   Overcast
11:35 PM 32.0 °F 22.1 °F 30.2 °F 93% 29.62 in 6.0 mi North 13.8 mph 21.9 mph N/A   Overcast
11:55 PM 32.0 °F 23.6 °F 30.2 °F 93% 29.63 in 7.0 mi North 10.4 mph 19.6 mph N/A   Overcast